QPF
0.00 0.00 0.00 0.00 0.00 0.00 0.00 0.00 0.00 0.00 0.01 0.02 0.00 0.00 0.00 0.02 0.03 0.01 0.00 0.00 0.00 0.00 0.01 0.01 0.01 0.02 0.02 0.02 0.02 0.02 0.04 0.05 0.05 0.05 0.04 0.04 0.04 0.05 0.06 0.08 0.09 0.10 0.10 0.09
0.00 0.00 0.00 0.00 0.00 0.00 0.00 0.00 0.00 0.01 0.02 0.02 0.00 0.00 0.00 0.00 0.02 0.02 0.00 0.00 0.01 0.01 0.01 0.01 0.01 0.01 0.01 0.01 0.02 0.01 0.02 0.06 0.06 0.07 0.05 0.03 0.03 0.04 0.06 0.07 0.08 0.10 0.10 0.10
0.00 0.00 0.00 0.00 0.00 0.00 0.00 0.00 0.00 0.01 0.02 0.02 0.01 0.00 0.00 0.00 0.00 0.00 0.00 0.00 0.01 0.01 0.02 0.01 0.01 0.02 0.02 0.02 0.02 0.03 0.03 0.03 0.04 0.05 0.05 0.03 0.02 0.02 0.04 0.05 0.05 0.06 0.08 0.09
0.00 0.00 0.00 0.00 0.00 0.00 0.00 0.00 0.00 0.00 0.01 0.01 0.01 0.00 0.00 0.00 0.00 0.00 0.00 0.01 0.01 0.01 0.01 0.02 0.02 0.02 0.03 0.02 0.02 0.03 0.03 0.02 0.02 0.02 0.03 0.03 0.02 0.02 0.04 0.06 0.06 0.06 0.06 0.07
0.00 0.00 0.00 0.00 0.00 0.00 0.00 0.00 0.00 0.00 0.00 0.00 0.00 0.01 0.01 0.00 0.00 0.01 0.00 0.00 0.00 0.01 0.01 0.03 0.05 0.05 0.03 0.03 0.03 0.03 0.02 0.03 0.02 0.03 0.02 0.02 0.02 0.03 0.06 0.08 0.09 0.08 0.07 0.08
0.00 0.00 0.00 0.01 0.00 0.00 0.00 0.01 0.01 0.00 0.00 0.00 0.00 0.02 0.03 0.01 0.01 0.01 0.00 0.01 0.01 0.01 0.01 0.02 0.05 0.12 0.13 0.09 0.05 0.03 0.03 0.05 0.06 0.06 0.04 0.04 0.04 0.05 0.06 0.05 0.06 0.07 0.07 0.08
0.00 0.00 0.00 0.00 0.00 0.00 0.01 0.02 0.01 0.00 0.00 0.00 0.01 0.01 0.02 0.01 0.01 0.01 0.01 0.01 0.01 0.01 0.01 0.02 0.04 0.07 0.12 0.12 0.07 0.03 0.04 0.04 0.05 0.06 0.06 0.06 0.07 0.06 0.04 0.03 0.03 0.04 0.04 0.05
0.00 0.01 0.02 0.02 0.01 0.01 0.02 0.01 0.00 0.00 0.00 0.00 0.01 0.01 0.01 0.01 0.01 0.02 0.02 0.02 0.01 0.02 0.02 0.02 0.03 0.04 0.06 0.06 0.05 0.02 0.03 0.03 0.03 0.04 0.04 0.04 0.04 0.03 0.03 0.03 0.02 0.03 0.03 0.03
0.01 0.02 0.02 0.01 0.03 0.01 0.00 0.00 0.00 0.00 0.00 0.00 0.00 0.01 0.01 0.01 0.01 0.02 0.02 0.03 0.04 0.03 0.02 0.03 0.04 0.03 0.04 0.03 0.02 0.02 0.01 0.02 0.02 0.03 0.03 0.03 0.02 0.02 0.02 0.01 0.02 0.02 0.02 0.02
0.01 0.01 0.01 0.00 0.00 0.00 0.00 0.00 0.00 0.00 0.00 0.00 0.00 0.01 0.01 0.01 0.02 0.01 0.02 0.02 0.03 0.03 0.02 0.03 0.04 0.04 0.04 0.03 0.01 0.02 0.01 0.02 0.02 0.02 0.03 0.02 0.02 0.02 0.02 0.01 0.01 0.01 0.01 0.01
0.04 0.03 0.04 0.01 0.00 0.00 0.00 0.00 0.00 0.00 0.01 0.01 0.01 0.00 0.01 0.02 0.02 0.02 0.02 0.02 0.02 0.02 0.03 0.03 0.05 0.07 0.05 0.03 0.03 0.02 0.01 0.01 0.02 0.02 0.02 0.01 0.02 0.01 0.01 0.01 0.01 0.01 0.01 0.01
0.05 0.03 0.03 0.02 0.01 0.01 0.00 0.00 0.00 0.01 0.01 0.01 0.01 0.01 0.02 0.02 0.02 0.01 0.02 0.03 0.03 0.03 0.03 0.04 0.04 0.06 0.07 0.05 0.03 0.01 0.01 0.01 0.01 0.01 0.01 0.01 0.01 0.01 0.02 0.02 0.02 0.01 0.00 0.00
0.03 0.02 0.02 0.02 0.02 0.02 0.01 0.01 0.01 0.01 0.01 0.01 0.02 0.02 0.02 0.02 0.03 0.02 0.02 0.02 0.03 0.02 0.03 0.04 0.05 0.05 0.06 0.06 0.04 0.02 0.01 0.01 0.01 0.01 0.00 0.00 0.00 0.00 0.00 0.01 0.01 0.01 0.00 0.00
0.02 0.02 0.04 0.05 0.05 0.03 0.02 0.02 0.02 0.02 0.02 0.02 0.03 0.02 0.02 0.02 0.03 0.04 0.03 0.04 0.04 0.05 0.04 0.04 0.04 0.04 0.04 0.03 0.04 0.03 0.01 0.01 0.00 0.00 0.00 0.00 0.00 0.00 0.00 0.00 0.01 0.01 0.01 0.01
0.02 0.03 0.05 0.07 0.06 0.03 0.02 0.02 0.03 0.03 0.03 0.02 0.03 0.03 0.02 0.02 0.02 0.04 0.03 0.03 0.03 0.04 0.04 0.03 0.03 0.03 0.02 0.02 0.02 0.01 0.00 0.00 0.00 0.00 0.00 0.00 0.00 0.00 0.00 0.00 0.00 0.01 0.01 0.01
0.03 0.03 0.04 0.07 0.04 0.02 0.02 0.03 0.04 0.04 0.04 0.03 0.03 0.02 0.02 0.01 0.01 0.03 0.03 0.03 0.03 0.02 0.01 0.01 0.01 0.02 0.01 0.01 0.01 0.01 0.00 0.00 0.00 0.00 0.00 0.00 0.00 0.00 0.00 0.00 0.00 0.00 0.01 0.01
0.05 0.06 0.06 0.05 0.03 0.03 0.03 0.03 0.03 0.04 0.05 0.03 0.02 0.02 0.02 0.02 0.02 0.02 0.02 0.02 0.03 0.02 0.02 0.01 0.01 0.01 0.01 0.01 0.01 0.00 0.00 0.00 0.00 0.00 0.00 0.00 0.00 0.00 0.00 0.00 0.00 0.01 0.01 0.01
0.05 0.06 0.06 0.05 0.04 0.04 0.04 0.04 0.04 0.03 0.04 0.03 0.03 0.04 0.03 0.03 0.04 0.03 0.03 0.03 0.02 0.02 0.02 0.02 0.01 0.01 0.01 0.00 0.00 0.00 0.00 0.00 0.00 0.00 0.00 0.00 0.00 0.00 0.00 0.01 0.01 0.01 0.01 0.02
0.09 0.08 0.04 0.04 0.04 0.04 0.05 0.06 0.05 0.04 0.03 0.03 0.02 0.02 0.03 0.04 0.04 0.04 0.03 0.02 0.02 0.02 0.02 0.02 0.01 0.01 0.01 0.00 0.00 0.00 0.00 0.00 0.00 0.00 0.00 0.00 0.00 0.01 0.01 0.01 0.02 0.02 0.02 0.02
0.13 0.11 0.05 0.03 0.03 0.03 0.06 0.07 0.04 0.03 0.03 0.04 0.03 0.03 0.03 0.03 0.04 0.04 0.04 0.03 0.03 0.03 0.02 0.02 0.02 0.01 0.00 0.00 0.00 0.00 0.00 0.01 0.01 0.01 0.01 0.01 0.01 0.02 0.02 0.02 0.02 0.02 0.02 0.03
0.10 0.09 0.07 0.05 0.04 0.03 0.05 0.07 0.05 0.03 0.04 0.05 0.05 0.03 0.02 0.02 0.03 0.04 0.06 0.06 0.04 0.04 0.03 0.03 0.03 0.02 0.01 0.01 0.00 0.00 0.00 0.01 0.01 0.01 0.01 0.01 0.01 0.02 0.02 0.02 0.02 0.02 0.02 0.02
0.06 0.07 0.08 0.07 0.06 0.04 0.04 0.04 0.04 0.04 0.05 0.06 0.04 0.03 0.02 0.02 0.02 0.02 0.03 0.04 0.04 0.04 0.03 0.03 0.02 0.02 0.02 0.01 0.01 0.01 0.01 0.01 0.01 0.01 0.02 0.01 0.01 0.01 0.01 0.01 0.02 0.02 0.03 0.04
0.05 0.06 0.07 0.08 0.09 0.05 0.03 0.03 0.03 0.03 0.03 0.04 0.03 0.02 0.02 0.02 0.03 0.04 0.04 0.03 0.03 0.04 0.03 0.02 0.02 0.02 0.02 0.01 0.01 0.01 0.01 0.01 0.01 0.01 0.01 0.01 0.01 0.01 0.00 0.00 0.01 0.01 0.02 0.02
0.06 0.07 0.08 0.08 0.08 0.07 0.04 0.03 0.03 0.02 0.03 0.03 0.02 0.02 0.02 0.02 0.03 0.04 0.05 0.05 0.04 0.04 0.03 0.02 0.02 0.02 0.02 0.01 0.01 0.01 0.00 0.00 0.00 0.00 0.00 0.00 0.01 0.00 0.00 0.00 0.00 0.00 0.01 0.01
0.07 0.07 0.07 0.06 0.06 0.06 0.05 0.04 0.03 0.03 0.03 0.03 0.03 0.02 0.02 0.02 0.02 0.02 0.03 0.04 0.05 0.04 0.03 0.03 0.03 0.03 0.03 0.02 0.02 0.01 0.01 0.01 0.01 0.00 0.00 0.00 0.00 0.00 0.00 0.00 0.00 0.00 0.00 0.00
0.05 0.05 0.05 0.05 0.04 0.04 0.03 0.03 0.04 0.03 0.02 0.03 0.03 0.03 0.03 0.02 0.02 0.02 0.02 0.02 0.02 0.02 0.02 0.03 0.03 0.03 0.03 0.03 0.03 0.02 0.02 0.01 0.01 0.00 0.00 0.00 0.00 0.00 0.00 0.00 0.01 0.00 0.00 0.01
0.05 0.05 0.05 0.05 0.04 0.04 0.03 0.04 0.05 0.04 0.03 0.03 0.05 0.05 0.04 0.03 0.02 0.02 0.01 0.01 0.01 0.01 0.01 0.02 0.01 0.01 0.02 0.02 0.02 0.02 0.01 0.01 0.00 0.00 0.00 0.00 0.00 0.01 0.01 0.01 0.01 0.01 0.00 0.00
MSLP
1009.06 1009.23 1009.34 1009.41 1009.49 1009.57 1009.65 1009.71 1009.71 1009.63 1009.43 1009.11 1008.67 1008.15 1007.60 1007.07 1006.61 1006.29 1006.13 1006.16 1006.38 1006.78 1007.34 1008.01 1008.77 1009.59 1010.42 1011.25 1012.04 1012.79 1013.48 1014.10 1014.64 1015.10 1015.49 1015.81 1016.06 1016.24 1016.37 1016.45 1016.46 1016.42 1016.31 1016.14
1009.29 1009.33 1009.26 1009.14 1009.02 1008.92 1008.88 1008.88 1008.89 1008.89 1008.83 1008.69 1008.43 1008.08 1007.66 1007.21 1006.78 1006.44 1006.22 1006.18 1006.33 1006.69 1007.23 1007.93 1008.75 1009.64 1010.56 1011.47 1012.34 1013.13 1013.83 1014.44 1014.95 1015.38 1015.74 1016.04 1016.28 1016.49 1016.65 1016.77 1016.84 1016.86 1016.81 1016.70
1009.60 1009.55 1009.35 1009.09 1008.82 1008.60 1008.46 1008.41 1008.43 1008.49 1008.52 1008.50 1008.38 1008.15 1007.82 1007.42 1007.00 1006.63 1006.37 1006.27 1006.38 1006.70 1007.24 1007.96 1008.82 1009.78 1010.76 1011.73 1012.63 1013.43 1014.12 1014.70 1015.17 1015.56 1015.88 1016.16 1016.40 1016.62 1016.82 1016.99 1017.12 1017.20 1017.23 1017.19
1009.98 1009.87 1009.61 1009.27 1008.92 1008.63 1008.44 1008.36 1008.38 1008.47 1008.56 1008.61 1008.56 1008.39 1008.11 1007.73 1007.32 1006.92 1006.62 1006.48 1006.55 1006.85 1007.38 1008.11 1009.00 1009.98 1011.00 1011.98 1012.88 1013.67 1014.33 1014.87 1015.29 1015.64 1015.93 1016.19 1016.44 1016.68 1016.92 1017.14 1017.34 1017.48 1017.57 1017.60
1010.38 1010.27 1010.00 1009.65 1009.29 1008.98 1008.77 1008.69 1008.71 1008.80 1008.92 1008.99 1008.97 1008.83 1008.56 1008.18 1007.75 1007.34 1007.00 1006.83 1006.87 1007.14 1007.66 1008.38 1009.26 1010.25 1011.26 1012.23 1013.10 1013.86 1014.48 1014.97 1015.36 1015.67 1015.94 1016.20 1016.47 1016.74 1017.02 1017.30 1017.55 1017.75 1017.89 1017.97
1010.73 1010.66 1010.44 1010.14 1009.81 1009.54 1009.35 1009.28 1009.31 1009.40 1009.52 1009.59 1009.57 1009.42 1009.15 1008.77 1008.33 1007.90 1007.54 1007.35 1007.36 1007.60 1008.08 1008.77 1009.62 1010.57 1011.54 1012.47 1013.30 1014.01 1014.59 1015.05 1015.41 1015.71 1015.99 1016.26 1016.56 1016.87 1017.20 1017.53 1017.82 1018.07 1018.25 1018.36
1011.00 1011.01 1010.87 1010.65 1010.40 1010.19 1010.05 1010.01 1010.05 1010.14 1010.25 1010.31 1010.28 1010.13 1009.85 1009.47 1009.04 1008.60 1008.24 1008.03 1008.01 1008.22 1008.65 1009.29 1010.07 1010.95 1011.86 1012.72 1013.50 1014.17 1014.71 1015.16 1015.52 1015.83 1016.13 1016.45 1016.79 1017.15 1017.52 1017.89 1018.22 1018.50 1018.70 1018.83
1011.19 1011.27 1011.23 1011.11 1010.95 1010.82 1010.74 1010.73 1010.79 1010.89 1010.99 1011.05 1011.02 1010.87 1010.61 1010.25 1009.84 1009.43 1009.08 1008.86 1008.81 1008.98 1009.35 1009.90 1010.60 1011.39 1012.21 1013.00 1013.72 1014.35 1014.88 1015.33 1015.71 1016.07 1016.42 1016.78 1017.18 1017.59 1018.00 1018.40 1018.76 1019.05 1019.26 1019.38
1011.32 1011.47 1011.51 1011.48 1011.41 1011.35 1011.32 1011.35 1011.43 1011.54 1011.64 1011.71 1011.69 1011.58 1011.36 1011.05 1010.69 1010.31 1009.99 1009.78 1009.72 1009.83 1010.13 1010.60 1011.19 1011.87 1012.59 1013.30 1013.97 1014.57 1015.10 1015.57 1016.01 1016.42 1016.84 1017.27 1017.73 1018.19 1018.64 1019.06 1019.42 1019.71 1019.91 1020.02
1011.45 1011.64 1011.73 1011.76 1011.75 1011.74 1011.75 1011.80 1011.90 1012.02 1012.13 1012.22 1012.25 1012.19 1012.04 1011.80 1011.51 1011.21 1010.94 1010.74 1010.67 1010.74 1010.96 1011.33 1011.81 1012.38 1013.01 1013.64 1014.26 1014.84 1015.39 1015.90 1016.40 1016.89 1017.38 1017.88 1018.39 1018.89 1019.37 1019.80 1020.16 1020.44 1020.62 1020.71
1011.62 1011.82 1011.94 1011.99 1012.00 1012.00 1012.02 1012.08 1012.18 1012.31 1012.44 1012.57 1012.64 1012.66 1012.60 1012.46 1012.28 1012.06 1011.85 1011.69 1011.62 1011.65 1011.80 1012.07 1012.45 1012.92 1013.45 1014.01 1014.59 1015.17 1015.74 1016.31 1016.87 1017.43 1017.99 1018.56 1019.11 1019.65 1020.14 1020.57 1020.91 1021.17 1021.33 1021.39
1011.89 1012.07 1012.16 1012.19 1012.19 1012.17 1012.18 1012.22 1012.30 1012.43 1012.58 1012.74 1012.88 1012.98 1013.03 1013.00 1012.93 1012.81 1012.68 1012.57 1012.51 1012.52 1012.62 1012.81 1013.10 1013.48 1013.93 1014.44 1014.99 1015.56 1016.16 1016.77 1017.39 1018.01 1018.64 1019.25 1019.84 1020.38 1020.87 1021.29 1021.61 1021.84 1021.98 1022.02
1012.25 1012.37 1012.42 1012.40 1012.35 1012.29 1012.25 1012.26 1012.32 1012.43 1012.60 1012.79 1013.00 1013.18 1013.33 1013.43 1013.47 1013.46 1013.42 1013.37 1013.34 1013.34 1013.41 1013.55 1013.77 1014.08 1014.47 1014.93 1015.46 1016.03 1016.64 1017.29 1017.95 1018.61 1019.28 1019.91 1020.51 1021.06 1021.53 1021.92 1022.22 1022.42 1022.53 1022.56
1012.67 1012.73 1012.71 1012.63 1012.52 1012.40 1012.30 1012.26 1012.29 1012.39 1012.56 1012.78 1013.04 1013.31 1013.55 1013.76 1013.91 1014.01 1014.06 1014.08 1014.09 1014.11 1014.17 1014.29 1014.47 1014.73 1015.08 1015.51 1016.02 1016.58 1017.20 1017.86 1018.54 1019.22 1019.89 1020.53 1021.11 1021.64 1022.08 1022.44 1022.71 1022.89 1022.98 1023.00
1013.09 1013.08 1013.00 1012.86 1012.68 1012.51 1012.36 1012.28 1012.27 1012.36 1012.53 1012.78 1013.08 1013.41 1013.74 1014.04 1014.29 1014.49 1014.64 1014.73 1014.80 1014.86 1014.93 1015.04 1015.21 1015.45 1015.78 1016.18 1016.67 1017.22 1017.83 1018.48 1019.15 1019.81 1020.46 1021.07 1021.63 1022.12 1022.52 1022.85 1023.09 1023.24 1023.33 1023.35
1013.45 1013.39 1013.26 1013.07 1012.86 1012.64 1012.47 1012.35 1012.33 1012.40 1012.58 1012.85 1013.18 1013.56 1013.95 1014.33 1014.66 1014.95 1015.17 1015.34 1015.47 1015.58 1015.68 1015.82 1015.99 1016.23 1016.54 1016.93 1017.39 1017.92 1018.50 1019.12 1019.75 1020.37 1020.98 1021.54 1022.05 1022.49 1022.85 1023.14 1023.36 1023.50 1023.58 1023.60
1013.73 1013.64 1013.49 1013.28 1013.06 1012.83 1012.65 1012.54 1012.51 1012.59 1012.77 1013.05 1013.41 1013.82 1014.25 1014.68 1015.07 1015.42 1015.71 1015.94 1016.13 1016.29 1016.43 1016.60 1016.79 1017.04 1017.34 1017.71 1018.15 1018.64 1019.17 1019.73 1020.30 1020.87 1021.41 1021.90 1022.35 1022.74 1023.07 1023.33 1023.52 1023.66 1023.75 1023.80
1013.93 1013.84 1013.70 1013.51 1013.31 1013.12 1012.96 1012.87 1012.87 1012.96 1013.16 1013.45 1013.82 1014.24 1014.69 1015.13 1015.55 1015.93 1016.26 1016.54 1016.77 1016.97 1017.16 1017.35 1017.56 1017.81 1018.11 1018.46 1018.86 1019.30 1019.78 1020.27 1020.76 1021.25 1021.71 1022.14 1022.53 1022.87 1023.16 1023.40 1023.60 1023.75 1023.85 1023.93
1014.11 1014.05 1013.94 1013.81 1013.66 1013.53 1013.43 1013.40 1013.43 1013.56 1013.77 1014.07 1014.43 1014.85 1015.28 1015.72 1016.13 1016.52 1016.85 1017.14 1017.39 1017.61 1017.82 1018.03 1018.25 1018.50 1018.78 1019.10 1019.46 1019.84 1020.25 1020.66 1021.08 1021.49 1021.87 1022.24 1022.57 1022.87 1023.14 1023.38 1023.58 1023.75 1023.89 1024.01
1014.32 1014.32 1014.28 1014.23 1014.16 1014.11 1014.09 1014.12 1014.21 1014.37 1014.60 1014.90 1015.25 1015.63 1016.03 1016.43 1016.80 1017.15 1017.46 1017.73 1017.97 1018.19 1018.39 1018.59 1018.80 1019.04 1019.29 1019.57 1019.88 1020.21 1020.54 1020.89 1021.23 1021.56 1021.88 1022.19 1022.48 1022.76 1023.01 1023.26 1023.48 1023.69 1023.88 1024.04
1014.65 1014.71 1014.76 1014.79 1014.82 1014.86 1014.93 1015.03 1015.17 1015.36 1015.60 1015.89 1016.20 1016.54 1016.88 1017.21 1017.53 1017.81 1018.06 1018.28 1018.48 1018.66 1018.83 1019.01 1019.19 1019.39 1019.61 1019.85 1020.11 1020.38 1020.65 1020.93 1021.21 1021.49 1021.76 1022.02 1022.29 1022.56 1022.82 1023.08 1023.34 1023.59 1023.82 1024.04
1015.11 1015.25 1015.38 1015.50 1015.62 1015.74 1015.88 1016.04 1016.22 1016.44 1016.68 1016.94 1017.22 1017.49 1017.76 1018.01 1018.24 1018.44 1018.61 1018.76 1018.89 1019.02 1019.14 1019.27 1019.41 1019.57 1019.75 1019.95 1020.16 1020.38 1020.61 1020.84 1021.08 1021.31 1021.55 1021.80 1022.06 1022.33 1022.60 1022.89 1023.18 1023.48 1023.76 1024.03
1015.69 1015.89 1016.09 1016.28 1016.47 1016.65 1016.85 1017.05 1017.26 1017.48 1017.71 1017.94 1018.17 1018.38 1018.57 1018.74 1018.88 1018.99 1019.08 1019.14 1019.20 1019.25 1019.31 1019.38 1019.48 1019.59 1019.73 1019.89 1020.07 1020.26 1020.46 1020.67 1020.89 1021.11 1021.34 1021.59 1021.85 1022.13 1022.43 1022.74 1023.06 1023.39 1023.71 1024.02
1016.30 1016.56 1016.80 1017.04 1017.26 1017.48 1017.70 1017.92 1018.14 1018.35 1018.56 1018.76 1018.94 1019.10 1019.23 1019.32 1019.38 1019.41 1019.41 1019.40 1019.39 1019.37 1019.37 1019.40 1019.44 1019.52 1019.63 1019.77 1019.93 1020.10 1020.30 1020.50 1020.72 1020.95 1021.19 1021.45 1021.72 1022.02 1022.33 1022.66 1023.01 1023.36 1023.70 1024.04
1016.86 1017.14 1017.40 1017.65 1017.89 1018.11 1018.33 1018.54 1018.75 1018.95 1019.14 1019.31 1019.45 1019.56 1019.64 1019.69 1019.69 1019.66 1019.61 1019.55 1019.47 1019.41 1019.37 1019.35 1019.37 1019.42 1019.51 1019.63 1019.79 1019.97 1020.17 1020.39 1020.63 1020.88 1021.14 1021.42 1021.71 1022.02 1022.35 1022.69 1023.04 1023.39 1023.74 1024.08
1017.26 1017.54 1017.79 1018.03 1018.24 1018.44 1018.64 1018.83 1019.02 1019.20 1019.36 1019.52 1019.64 1019.74 1019.80 1019.82 1019.81 1019.76 1019.68 1019.59 1019.49 1019.40 1019.33 1019.29 1019.29 1019.33 1019.42 1019.55 1019.71 1019.91 1020.14 1020.38 1020.65 1020.92 1021.21 1021.51 1021.82 1022.14 1022.47 1022.80 1023.14 1023.49 1023.83 1024.15
1017.44 1017.70 1017.92 1018.11 1018.29 1018.45 1018.61 1018.77 1018.94 1019.10 1019.26 1019.41 1019.55 1019.65 1019.72 1019.76 1019.76 1019.72 1019.65 1019.57 1019.47 1019.38 1019.31 1019.27 1019.27 1019.31 1019.41 1019.54 1019.73 1019.95 1020.20 1020.47 1020.76 1021.07 1021.38 1021.69 1022.01 1022.33 1022.65 1022.97 1023.30 1023.61 1023.93 1024.23
Thickness
5788 5803 5808 5804 5802 5807 5805 5806 5799 5802 5805 5812 5819 5825 5825 5823 5818 5814 5811 5808 5803 5799 5795 5791 5787 5784 5781 5778 5776 5773 5767 5762 5759 5757 5754 5751 5749 5747 5744 5742 5740 5738 5736 5734
5774 5794 5803 5800 5805 5807 5807 5808 5806 5806 5804 5822 5829 5827 5821 5817 5814 5807 5805 5803 5800 5795 5790 5786 5782 5779 5777 5774 5772 5769 5763 5759 5756 5753 5750 5747 5744 5741 5739 5737 5735 5732 5729 5728
5760 5782 5787 5781 5800 5804 5806 5812 5809 5799 5804 5816 5816 5816 5815 5814 5811 5807 5803 5800 5795 5790 5786 5782 5780 5777 5772 5770 5767 5763 5758 5755 5752 5749 5745 5742 5740 5736 5733 5731 5729 5726 5724 5721
5756 5761 5747 5786 5819 5816 5810 5813 5819 5815 5812 5813 5815 5816 5818 5816 5810 5805 5801 5796 5792 5788 5783 5780 5777 5773 5769 5766 5762 5757 5753 5749 5747 5744 5740 5737 5734 5731 5728 5726 5723 5720 5717 5715
5750 5746 5757 5786 5806 5810 5801 5799 5816 5813 5812 5813 5815 5810 5805 5811 5809 5804 5799 5795 5790 5787 5782 5777 5773 5769 5764 5760 5756 5751 5747 5744 5742 5739 5735 5731 5728 5725 5723 5720 5717 5714 5711 5709
5744 5738 5739 5773 5805 5819 5805 5783 5809 5811 5807 5806 5804 5786 5788 5802 5803 5799 5796 5791 5786 5782 5777 5771 5767 5764 5757 5752 5748 5744 5742 5740 5738 5734 5730 5726 5724 5721 5718 5715 5711 5708 5705 5702
5737 5739 5753 5781 5801 5805 5771 5772 5801 5805 5804 5802 5796 5794 5794 5797 5795 5792 5788 5784 5780 5775 5769 5765 5761 5756 5749 5745 5741 5740 5738 5735 5732 5728 5725 5721 5718 5716 5713 5710 5706 5702 5698 5695
5736 5733 5739 5778 5786 5775 5774 5792 5797 5797 5797 5794 5793 5794 5790 5786 5783 5781 5777 5774 5771 5765 5760 5758 5755 5749 5743 5739 5737 5735 5732 5729 5725 5723 5720 5716 5713 5710 5708 5704 5700 5696 5692 5688
5745 5743 5759 5773 5772 5778 5785 5784 5789 5790 5791 5789 5785 5782 5780 5775 5773 5771 5769 5765 5762 5757 5752 5750 5747 5743 5737 5734 5732 5729 5725 5721 5719 5716 5713 5710 5707 5704 5701 5698 5695 5691 5687 5682
5741 5745 5756 5763 5769 5776 5780 5780 5784 5786 5786 5784 5778 5774 5770 5766 5764 5762 5760 5757 5754 5749 5744 5740 5739 5736 5732 5729 5726 5722 5718 5714 5711 5708 5704 5700 5698 5695 5692 5689 5687 5683 5679 5674
5732 5738 5745 5750 5759 5765 5771 5776 5778 5778 5779 5776 5770 5765 5761 5757 5755 5754 5751 5749 5746 5740 5736 5732 5730 5727 5724 5721 5719 5714 5710 5707 5704 5700 5694 5688 5683 5677 5676 5671 5671 5672 5669 5666
5721 5734 5737 5740 5752 5758 5760 5762 5765 5766 5765 5765 5762 5756 5753 5749 5748 5745 5742 5740 5736 5732 5728 5724 5721 5718 5715 5714 5711 5707 5703 5700 5697 5693 5687 5682 5675 5667 5661 5661 5659 5658 5656 5653
5729 5738 5739 5742 5746 5750 5751 5753 5756 5755 5753 5751 5750 5749 5745 5741 5739 5736 5734 5731 5727 5724 5720 5717 5713 5709 5707 5705 5703 5700 5697 5694 5691 5687 5681 5676 5670 5665 5658 5651 5648 5646 5644 5642
5726 5729 5726 5730 5734 5740 5743 5743 5745 5744 5743 5742 5740 5738 5736 5732 5730 5726 5723 5721 5719 5716 5712 5709 5705 5701 5699 5698 5695 5692 5690 5687 5684 5680 5676 5671 5666 5662 5656 5651 5645 5638 5633 5630
5715 5721 5721 5723 5726 5728 5731 5732 5730 5729 5729 5729 5729 5727 5725 5721 5719 5717 5716 5714 5711 5707 5703 5700 5696 5693 5692 5690 5686 5684 5682 5679 5676 5673 5670 5666 5662 5658 5653 5647 5641 5634 5627 5622
5706 5710 5712 5712 5713 5717 5719 5720 5718 5717 5717 5717 5717 5716 5715 5713 5711 5709 5707 5705 5701 5697 5694 5691 5687 5685 5684 5682 5679 5676 5673 5670 5668 5666 5663 5659 5656 5651 5646 5641 5635 5629 5623 5617
5691 5693 5696 5699 5704 5707 5709 5710 5710 5709 5708 5707 5707 5707 5705 5703 5700 5697 5696 5695 5692 5689 5686 5683 5680 5678 5676 5674 5672 5670 5666 5662 5659 5657 5654 5650 5646 5642 5638 5633 5627 5621 5615 5609
5689 5692 5695 5697 5698 5698 5699 5701 5701 5700 5700 5700 5699 5697 5694 5691 5688 5686 5685 5684 5681 5678 5676 5675 5672 5670 5667 5665 5663 5661 5659 5655 5652 5648 5645 5641 5637 5633 5629 5623 5618 5613 5607 5601
5681 5684 5688 5690 5692 5692 5690 5690 5691 5691 5691 5691 5688 5686 5684 5682 5680 5677 5676 5673 5671 5667 5666 5665 5662 5661 5659 5656 5653 5652 5650 5647 5643 5639 5636 5630 5628 5624 5620 5616 5611 5606 5600 5593
5671 5674 5677 5680 5682 5681 5680 5680 5681 5681 5681 5680 5678 5675 5673 5671 5669 5667 5665 5662 5661 5660 5658 5656 5654 5652 5649 5647 5644 5645 5642 5639 5634 5631 5627 5623 5619 5616 5611 5607 5602 5597 5592 5586
5660 5665 5667 5669 5669 5670 5670 5671 5670 5670 5670 5670 5668 5665 5663 5661 5660 5658 5655 5653 5651 5650 5648 5645 5644 5642 5640 5637 5635 5636 5634 5630 5626 5623 5619 5614 5610 5606 5602 5597 5592 5588 5583 5578
5652 5655 5657 5659 5659 5659 5660 5661 5661 5659 5658 5658 5656 5655 5653 5651 5649 5648 5647 5645 5643 5640 5639 5638 5636 5632 5630 5629 5629 5627 5625 5622 5619 5615 5611 5606 5602 5597 5593 5588 5584 5579 5574 5569
5643 5646 5647 5648 5649 5649 5651 5651 5651 5650 5648 5647 5646 5645 5644 5643 5642 5640 5637 5636 5635 5631 5631 5629 5625 5622 5620 5620 5621 5619 5616 5613 5610 5607 5603 5599 5595 5590 5586 5581 5576 5571 5566 5562
5636 5637 5637 5638 5640 5640 5639 5639 5640 5639 5638 5637 5637 5637 5636 5635 5633 5633 5631 5626 5625 5623 5622 5617 5615 5613 5611 5613 5612 5611 5608 5605 5602 5600 5596 5592 5588 5583 5578 5574 5569 5564 5559 5554
5628 5629 5629 5630 5630 5630 5630 5630 5630 5629 5629 5629 5628 5628 5629 5629 5627 5625 5623 5619 5615 5615 5613 5609 5607 5605 5605 5605 5604 5602 5600 5598 5595 5592 5588 5584 5580 5575 5570 5566 5562 5557 5552 5547
5619 5620 5621 5622 5623 5623 5624 5624 5623 5623 5623 5621 5620 5620 5620 5620 5618 5617 5614 5612 5610 5607 5607 5603 5601 5599 5599 5599 5596 5594 5591 5588 5585 5582 5579 5576 5572 5568 5563 5558 5553 5549 5545 5540
5612 5613 5613 5614 5615 5616 5617 5617 5617 5615 5615 5614 5612 5611 5612 5612 5610 5608 5607 5606 5604 5602 5601 5598 5596 5595 5593 5591 5589 5586 5583 5581 5578 5574 5571 5568 5564 5560 5555 5550 5546 5541 5537 5534